WD8EHT Weather Reports


time (UTC)temp
C
wind
direction
speed
KPH
gust
KPH
rain 1hr
cm
rain 24hr
cm
rain mn
cm
humidity
%
barometer
mb
20260503050451 2 4 0.0 0.0 0.00 0.00 0.00 68 1014.0
20260503045949 2 8 0.0 0.0 0.00 0.00 0.00 69 1014.0
20260503045446 2 20 0.0 0.0 0.00 0.00 0.00 70 1013.8
20260503044943 2 33 0.0 0.0 0.00 0.00 0.00 66 1013.8
20260503044439 2 7 0.0 0.0 0.00 0.00 0.00 67 1013.8
20260503043937 2 6 0.0 0.0 0.00 0.00 0.00 66 1014.1
20260503043433 3 7 0.0 0.0 0.00 0.00 0.00 64 1014.0
20260503042930 3 6 0.0 0.0 0.00 0.00 0.00 61 1014.0
20260503042427 3 345 0.0 0.0 0.00 0.00 0.00 61 1014.0
20260503041923 3 2 0.0 0.0 0.00 0.00 0.00 61 1014.2
20260503041420 3 5 0.0 0.0 0.00 0.00 0.00 62 1014.1
20260503040917 3 14 0.0 0.0 0.00 0.00 0.00 63 1014.1
20260503040415 3 8 0.0 0.0 0.00 0.00 0.00 63 1014.2
20260503035912 3 2 0.0 0.0 0.00 0.00 0.00 65 1014.2
20260503035409 3 7 0.0 0.0 0.00 0.00 0.00 61 1014.2
20260503034906 3 8 0.0 0.0 0.00 0.00 0.00 60 1014.1
20260503034404 3 351 0.0 0.0 0.00 0.00 0.00 59 1014.1
20260503033901 3 1 0.0 0.0 0.00 0.00 0.00 59 1014.3
20260503033358 3 274 0.0 0.0 0.00 0.00 0.00 59 1014.3
20260503032856 3 5 0.0 0.0 0.00 0.00 0.00 60 1014.3
20260503032355 3 11 0.0 0.0 0.00 0.00 0.00 59 1014.2
20260503031851 3 9 0.0 0.0 0.00 0.00 0.00 59 1014.5
20260503031349 3 0 0.0 0.0 0.00 0.00 0.00 59 1014.4
20260503030845 4 7 0.0 0.0 0.00 0.00 0.00 60 1014.4
20260503030342 4 1 0.0 0.0 0.00 0.00 0.00 59 1014.4
20260503025838 4 3 0.0 0.0 0.00 0.00 0.00 59 1014.4
20260503025336 4 7 0.0 0.0 0.00 0.00 0.00 59 1014.3
20260503024833 4 11 0.0 0.0 0.00 0.00 0.00 58 1014.5
20260503024329 4 356 0.0 0.0 0.00 0.00 0.00 59 1014.7
20260503023826 4 355 0.0 0.0 0.00 0.00 0.00 59 1014.5
20260503023324 5 358 0.0 0.0 0.00 0.00 0.00 59 1014.7
20260503022820 5 348 0.0 0.0 0.00 0.00 0.00 58 1014.6
20260503022320 5 5 0.0 0.0 0.00 0.00 0.00 58 1014.5
20260503021817 5 352 0.0 0.0 0.00 0.00 0.00 57 1014.6
20260503021313 5 4 0.0 0.0 0.00 0.00 0.00 57 1014.3
20260503020811 5 5 0.0 0.0 0.00 0.00 0.00 57 1014.5
20260503020309 5 350 0.0 0.0 0.00 0.00 0.00 57 1014.4
20260503015804 5 357 0.0 0.0 0.00 0.00 0.00 58 1014.5
20260503015305 5 8 0.0 0.0 0.00 0.00 0.00 57 1014.4
20260503014757 5 3 0.0 0.0 0.00 0.00 0.00 56 1014.3
20260503014255 5 0 0.0 0.0 0.00 0.00 0.00 56 1014.4
20260503013752 5 8 0.0 0.0 0.00 0.00 0.00 55 1014.1
20260503013250 5 6 0.0 0.0 0.00 0.00 0.00 54 1014.1
20260503012747 6 9 0.0 0.0 0.00 0.00 0.00 53 1014.3
20260503012244 6 14 0.0 0.0 0.00 0.00 0.00 53 1014.0
20260503011741 6 7 0.0 0.0 0.00 0.00 0.00 53 1014.4
20260503011238 6 43 0.0 0.0 0.00 0.00 0.00 53 1014.2
20260503010734 6 18 0.0 0.0 0.00 0.00 0.00 52 1014.2
20260503010231 6 349 0.0 0.0 0.00 0.00 0.00 51 1014.3
20260503005728 7 351 0.0 0.0 0.00 0.00 0.00 50 1014.1
20260503005226 7 358 0.0 0.0 0.00 0.00 0.00 50 1014.1
20260503004721 7 337 0.0 0.0 0.00 0.00 0.00 49 1014.1
20260503004220 7 358 0.0 0.0 0.00 0.00 0.00 48 1014.1
20260503003717 7 332 1.6 4.8 0.00 0.00 0.00 47 1013.7
20260503003214 7 348 1.6 3.2 0.00 0.00 0.00 46 1014.0
20260503002710 7 0 1.6 1.6 0.00 0.00 0.00 47 1014.0
20260503002207 8 299 0.0 0.0 0.00 0.00 0.00 48 1014.1
20260503001703 8 20 4.8 4.8 0.00 0.00 0.00 45 1014.0
20260503001200 8 5 3.2 4.8 0.00 0.00 0.00 45 1014.0
20260503000658 8 348 3.2 4.8 0.00 0.00 0.00 44 1013.7
20260503000155 8 19 4.8 4.8 0.00 0.00 0.00 44 1013.8
20260502235652 8 16 4.8 4.8 0.00 0.00 0.00 44 1014.0
20260502235150 9 324 3.2 3.2 0.00 0.00 0.00 44 1013.8
20260502234645 9 4 0.0 1.6 0.00 0.00 0.00 45 1014.0
20260502234143 9 347 1.6 3.2 0.00 0.00 0.00 44 1014.0
20260502233639 9 18 0.0 1.6 0.00 0.00 0.00 45 1014.0
20260502233136 9 356 1.6 3.2 0.00 0.00 0.00 43 1014.3
20260502232631 10 353 1.6 3.2 0.00 0.00 0.00 43 1013.8
20260502232130 9 328 1.6 3.2 0.00 0.00 0.00 43 1014.2
20260502231626 10 69 4.8 4.8 0.00 0.00 0.00 41 1014.1
20260502231124 10 334 3.2 4.8 0.00 0.00 0.00 41 1014.0
20260502230622 10 346 1.6 1.6 0.00 0.00 0.00 41 1014.3
20260502230120 10 314 0.0 0.0 0.00 0.00 0.00 41 1014.1
20260502225615 9 341 4.8 4.8 0.00 0.00 0.00 43 1014.1
20260502225113 9 353 3.2 4.8 0.00 0.00 0.00 45 1014.2
20260502224609 10 54 3.2 3.2 0.00 0.00 0.00 41 1014.0
20260502224106 10 189 6.4 9.7 0.00 0.00 0.00 41 1014.0
20260502223603 10 354 3.2 4.8 0.00 0.00 0.00 43 1014.2
20260502223102 10 21 1.6 3.2 0.00 0.00 0.00 45 1014.3
20260502222559 9 1 1.6 1.6 0.00 0.00 0.00 44 1014.4
20260502222055 10 302 1.6 4.8 0.00 0.00 0.00 43 1014.0
20260502221551 10 38 6.4 8.0 0.00 0.00 0.00 42 1014.3
20260502221048 10 83 4.8 8.0 0.00 0.00 0.00 40 1014.2
20260502220544 10 26 3.2 3.2 0.00 0.00 0.00 43 1014.5
20260502220041 10 196 3.2 8.0 0.00 0.00 0.00 42 1014.1
20260502215538 10 19 4.8 4.8 0.00 0.00 0.00 42 1014.4
20260502215035 9 26 1.6 1.6 0.00 0.00 0.00 43 1014.4
20260502214532 9 14 3.2 3.2 0.00 0.00 0.00 44 1014.3
20260502214029 9 319 3.2 4.8 0.00 0.00 0.00 44 1014.4
20260502213526 9 61 1.6 3.2 0.00 0.00 0.00 43 1014.4
20260502213024 9 317 0.0 1.6 0.00 0.00 0.00 43 1014.5
20260502212522 8 28 4.8 4.8 0.00 0.00 0.00 45 1014.5
20260502212020 8 6 4.8 9.7 0.00 0.00 0.00 45 1014.3
20260502211515 8 18 6.4 9.7 0.00 0.00 0.00 44 1014.7
20260502211013 8 2 3.2 3.2 0.00 0.00 0.00 44 1014.4
20260502210509 8 12 4.8 4.8 0.00 0.00 0.00 45 1014.5
20260502210007 8 354 3.2 4.8 0.00 0.00 0.00 45 1014.6
20260502205503 9 347 1.6 1.6 0.00 0.00 0.00 43 1014.5
20260502205000 10 266 0.0 1.6 0.00 0.00 0.00 45 1014.5
20260502204456 10 14 1.6 1.6 0.00 0.00 0.00 46 1014.6
20260502203955 9 15 4.8 8.0 0.00 0.00 0.00 45 1014.7
20260502203451 9 6 3.2 4.8 0.00 0.00 0.00 45 1014.8
20260502202948 8 13 4.8 9.7 0.00 0.00 0.00 45 1014.8
20260502202445 10 78 3.2 8.0 0.00 0.00 0.00 45 1014.9
20260502201943 10 152 1.6 1.6 0.00 0.00 0.00 46 1014.8
20260502201438 10 10 8.0 11.3 0.00 0.00 0.00 43 1015.0
20260502200935 10 14 8.0 9.7 0.00 0.00 0.00 44 1014.9
20260502200431 10 311 1.6 3.2 0.00 0.00 0.00 46 1014.9
20260502195929 8 39 6.4 9.7 0.00 0.00 0.00 45 1015.1
20260502195426 8 335 3.2 4.8 0.00 0.00 0.00 45 1015.1
20260502194922 8 43 4.8 8.0 0.00 0.00 0.00 46 1015.3
20260502194419 8 5 3.2 3.2 0.00 0.00 0.00 46 1015.3
20260502193915 9 333 6.4 11.3 0.00 0.00 0.00 43 1015.3
20260502193413 10 86 4.8 4.8 0.00 0.00 0.00 44 1015.3
20260502192908 8 95 3.2 3.2 0.00 0.00 0.00 46 1015.3
20260502192405 8 348 1.6 3.2 0.00 0.00 0.00 46 1015.5
20260502191902 9 17 3.2 4.8 0.00 0.00 0.00 45 1015.7
20260502191400 10 63 3.2 3.2 0.00 0.00 0.00 42 1015.7
20260502190857 10 309 0.0 1.6 0.00 0.00 0.00 44 1015.6
20260502190354 8 39 4.8 4.8 0.00 0.00 0.00 43 1015.8
20260502185850 8 15 1.6 3.2 0.00 0.00 0.00 45 1015.7
20260502185345 9 317 1.6 3.2 0.00 0.00 0.00 46 1015.8
20260502184843 9 5 3.2 4.8 0.00 0.00 0.00 45 1016.0
20260502184338 9 20 4.8 4.8 0.00 0.00 0.00 44 1015.8
20260502183835 9 39 6.4 8.0 0.00 0.00 0.00 43 1015.9
20260502183331 9 326 0.0 1.6 0.00 0.00 0.00 47 1015.8
20260502182826 10 248 4.8 8.0 0.00 0.00 0.00 43 1016.1
20260502182322 8 12 3.2 3.2 0.00 0.00 0.00 44 1015.9
20260502181819 8 356 4.8 4.8 0.00 0.00 0.00 46 1016.0
20260502181318 8 324 1.6 3.2 0.00 0.00 0.00 47 1016.2
20260502180815 7 38 4.8 4.8 0.00 0.00 0.00 46 1016.3
20260502180312 7 33 4.8 4.8 0.00 0.00 0.00 47 1016.3
20260502170231 7 306 4.8 4.8 0.00 0.00 0.00 45 1016.5
20260502164219 7 21 1.6 1.6 0.00 0.00 0.00 45 1016.7
20260502163714 7 27 1.6 3.2 0.00 0.00 0.00 46 1016.7
20260502163211 7 31 3.2 4.8 0.00 0.00 0.00 47 1016.7
20260502162708 7 19 8.0 11.3 0.00 0.00 0.00 43 1016.6
20260502162204 7 14 0.0 1.6 0.00 0.00 0.00 47 1016.6
20260502161702 7 29 3.2 3.2 0.00 0.00 0.00 47 1016.8
20260502161158 8 101 1.6 4.8 0.00 0.00 0.00 45 1016.7
20260502160657 7 32 3.2 4.8 0.00 0.00 0.00 46 1016.7
20260502160156 7 11 3.2 4.8 0.00 0.00 0.00 46 1016.7
20260502152109 8 350 0.0 3.2 0.00 0.00 0.00 43 1016.7
20260502151606 7 315 3.2 4.8 0.00 0.00 0.00 44 1016.5
20260502151103 7 7 4.8 8.0 0.00 0.00 0.00 45 1016.6
20260502150601 7 12 1.6 3.2 0.00 0.00 0.00 46 1016.9
20260502130446 5 14 3.2 3.2 0.00 0.00 0.00 62 1016.9
20260502123428 3 13 3.2 3.2 0.00 0.00 0.00 70 1017.0
20260502122926 3 10 3.2 3.2 0.00 0.00 0.00 71 1017.0
20260502122421 3 359 1.6 1.6 0.00 0.00 0.00 71 1017.0
20260502121920 3 13 6.4 8.0 0.00 0.00 0.00 72 1017.0
20260502121416 3 42 3.2 4.8 0.00 0.00 0.00 73 1017.2
20260502120914 2 4 1.6 1.6 0.00 0.00 0.00 73 1017.1
20260502120410 2 26 1.6 1.6 0.00 0.00 0.00 74 1017.1
20260502115908 2 20 1.6 1.6 0.00 0.00 0.00 76 1017.0
20260502115405 2 16 3.2 3.2 0.00 0.00 0.00 77 1016.9
20260502114900 1 18 0.0 0.0 0.00 0.00 0.00 79 1016.9
20260502114358 1 18 1.6 3.2 0.00 0.00 0.00 79 1016.8
20260502113855 1 3 0.0 0.0 0.00 0.00 0.00 80 1016.7
20260502113352 1 12 3.2 3.2 0.00 0.00 0.00 81 1016.7
20260502112851 1 323 0.0 0.0 0.00 0.00 0.00 82 1016.7
20260502112348 0 345 0.0 0.0 0.00 0.00 0.00 82 1016.7
20260502111845 0 4 0.0 0.0 0.00 0.00 0.00 83 1016.7
20260502111342 0 2 0.0 0.0 0.00 0.00 0.00 84 1016.6
20260502110840 0 12 0.0 0.0 0.00 0.00 0.00 84 1016.5
20260502110338 0 3 0.0 1.6 0.00 0.00 0.00 85 1016.3
20260502105835 0 7 0.0 0.0 0.00 0.00 0.00 87 1016.3
20260502105332 -1 7 0.0 0.0 0.00 0.00 0.00 89 1016.5
20260502104829 -1 10 0.0 0.0 0.00 0.00 0.00 90 1016.5
20260502104327 -1 16 0.0 0.0 0.00 0.00 0.00 91 1016.5
20260502103824 -1 16 0.0 0.0 0.00 0.00 0.00 90 1016.5
20260502103321 -1 16 0.0 0.0 0.00 0.00 0.00 90 1016.2
20260502102818 -1 32 0.0 0.0 0.00 0.00 0.00 90 1016.5
20260502102314 0 10 0.0 0.0 0.00 0.00 0.00 88 1016.4
20260502101812 0 1 0.0 0.0 0.00 0.00 0.00 87 1016.3
20260502101310 0 14 0.0 0.0 0.00 0.00 0.00 87 1016.3
20260502100808 0 13 0.0 0.0 0.00 0.00 0.00 87 1016.3
20260502100307 0 13 0.0 0.0 0.00 0.00 0.00 87 1016.4
20260502091241 0 13 0.0 0.0 0.00 0.00 0.00 81 1016.1
20260502090738 0 13 0.0 0.0 0.00 0.00 0.00 80 1016.0
20260502090235 0 7 0.0 0.0 0.00 0.00 0.00 79 1015.9
20260502071136 2 2 0.0 0.0 0.00 0.00 0.00 68 1015.6
20260502070634 2 2 0.0 0.0 0.00 0.00 0.00 68 1015.6
20260502070131 2 3 0.0 1.6 0.00 0.00 0.00 67 1015.8
20260502065629 3 5 0.0 0.0 0.00 0.00 0.00 67 1015.8
20260502065127 3 357 1.6 1.6 0.00 0.00 0.00 67 1015.8
20260502064626 3 11 0.0 0.0 0.00 0.00 0.00 67 1015.8
20260502064122 3 13 0.0 0.0 0.00 0.00 0.00 66 1015.6
20260502063620 3 9 0.0 0.0 0.00 0.00 0.00 66 1015.8
20260502063117 3 13 0.0 0.0 0.00 0.00 0.00 64 1015.7
20260502062614 3 5 1.6 1.6 0.00 0.00 0.00 63 1016.0
20260502062112 3 3 1.6 1.6 0.00 0.00 0.00 64 1015.8
20260502061610 3 10 0.0 0.0 0.00 0.00 0.00 64 1015.8
20260502061107 3 37 0.0 0.0 0.00 0.00 0.00 63 1016.2
20260502060607 3 249 0.0 0.0 0.00 0.00 0.00 62 1016.0
20260502060104 3 332 0.0 0.0 0.00 0.00 0.00 62 1016.0
20260502055602 3 13 0.0 0.0 0.00 0.00 0.00 62 1015.8
20260502055100 3 7 0.0 0.0 0.00 0.00 0.00 62 1016.0
20260502054559 3 349 0.0 1.6 0.00 0.00 0.00 62 1016.0
20260502054055 3 23 4.8 4.8 0.00 0.00 0.00 60 1016.1
20260502053552 3 8 0.0 0.0 0.00 0.00 0.00 62 1016.0
20260502053050 3 7 0.0 0.0 0.00 0.00 0.00 61 1016.1
20260502052549 3 13 0.0 0.0 0.00 0.00 0.00 61 1016.0
20260502052046 3 4 0.0 0.0 0.00 0.00 0.00 61 1015.9
20260502051544 4 6 0.0 0.0 0.00 0.00 0.00 61 1015.8
20260502051041 4 16 0.0 1.6 0.00 0.00 0.00 60 1015.8
20260502050537 4 355 3.2 4.8 0.00 0.00 0.00 60 1015.9